DW9029 San Juan de Aznalfarache ES current weather conditions

sailwx.info

Wind from 202 at 5 knots gusting 11

Air temperature 33.3° C
Dewpoint 18.6° C

Last reported at 2019-Jul-18 17:03 UTC.
Time now 2019-Jul-18 17:27 UTC

Location: N 37°22' W 006°02'.
View on Google Maps.

See reports from other nearby stations

  
Tides and Currents Weather Stations Pressure Air Temp Water Temp Dewpoint Dewpoint Depression Visibility Wind Speed Wind Dir Waves Ship Positions
date/time (UTC)wind fromknots sea level pressurealtimeterstation pressurevisibilityair tempwater tempwave heightnotes
2019-Jul-18 17:08 162 2 gusting 8 33.3
2019-Jul-18 17:03 202 5 gusting 11 33.3
2019-Jul-18 16:48 211 2 gusting 12 33.9
2019-Jul-18 16:43 206 0 gusting 8 33.9
2019-Jul-18 16:38 176 1 gusting 8 33.9
2019-Jul-18 16:33 185 2 gusting 8 33.9
2019-Jul-18 16:18 168 1 gusting 6 34.4
2019-Jul-18 16:13 178 1 gusting 6 35.0
2019-Jul-18 16:08 111 1 gusting 5 35.6
2019-Jul-18 16:03 258 0 gusting 2 35.6
2019-Jul-18 15:48 086 0 gusting 5 35.0
2019-Jul-18 15:43 034 1 gusting 5 35.0
2019-Jul-18 15:38 349 0 gusting 2 34.4
2019-Jul-18 15:33 050 0 gusting 4 34.4
2019-Jul-18 15:18 064 0 gusting 2 33.9
2019-Jul-18 15:13 062 0 gusting 6 33.9
2019-Jul-18 15:08 093 33.9
2019-Jul-18 15:03 058 2 gusting 6 34.4
2019-Jul-18 14:48 079 34.4
2019-Jul-18 14:43 161 33.9
2019-Jul-18 14:38 348 33.9
2019-Jul-18 14:33 113 33.3
2019-Jul-18 14:18 229 33.9
2019-Jul-18 14:13 323 33.9
2019-Jul-18 14:08 318 33.3
2019-Jul-18 14:03 325 33.3
2019-Jul-18 13:48 206 32.2
2019-Jul-18 13:43 213 32.2
2019-Jul-18 13:38 288 31.7
2019-Jul-18 13:33 256 0 gusting 4 31.7
2019-Jul-18 13:18 171 31.1
2019-Jul-18 13:13 228 31.1
2019-Jul-18 13:08 136 30.6
2019-Jul-18 13:03 132 30.6
2019-Jul-18 12:48 106 0 gusting 4 29.4
2019-Jul-18 12:43 105 29.4
2019-Jul-18 12:38 138 1 gusting 6 29.4
2019-Jul-18 12:33 081 29.4
2019-Jul-18 12:18 139 0 gusting 6 28.9
2019-Jul-18 12:13 066 28.9
2019-Jul-18 12:08 114 28.3
2019-Jul-18 12:03 071 28.3
2019-Jul-18 11:48 294 27.8
2019-Jul-18 11:43 248 27.8
2019-Jul-18 11:38 007 27.2
2019-Jul-18 11:33 047 27.2
2019-Jul-18 11:18 219 26.7
2019-Jul-18 11:13 328 0 gusting 2 26.7
2019-Jul-18 11:08 305 26.1
2019-Jul-18 11:03 020 26.1
2019-Jul-18 10:48 030 25.6
2019-Jul-18 10:43 079 25.6
2019-Jul-18 10:38 337 0 gusting 4 25.0
2019-Jul-18 10:33 042 25.0
2019-Jul-18 10:18 091 24.4
2019-Jul-18 10:13 181 24.4
2019-Jul-18 10:08 156 23.9
2019-Jul-18 10:03 160 23.9
2019-Jul-18 09:48 203 0 gusting 2 23.3
2019-Jul-18 09:43 225 22.8
2019-Jul-18 09:38 225 1 gusting 2 22.8
2019-Jul-18 09:33 221 22.2
2019-Jul-18 09:18 123 22.2
2019-Jul-18 09:13 103 22.2
2019-Jul-18 09:08 104 21.7
2019-Jul-18 09:03 093 21.7
2019-Jul-18 08:48 147 21.7
2019-Jul-18 08:43 109 21.7
2019-Jul-18 08:38 095 21.7
2019-Jul-18 08:33 142 21.1
2019-Jul-18 08:18 198 20.6
2019-Jul-18 08:13 198 20.6
2019-Jul-18 08:08 198 20.6
2019-Jul-18 08:03 198 20.6
2019-Jul-18 07:48 198 20.0
2019-Jul-18 07:43 198 20.0
2019-Jul-18 07:38 154 19.4
2019-Jul-18 07:33 160 19.4
2019-Jul-18 07:18 191 19.4
2019-Jul-18 07:13 191 19.4
2019-Jul-18 07:08 194 19.4
2019-Jul-18 07:03 202 19.4
2019-Jul-18 06:48 188 18.9
2019-Jul-18 06:43 188 18.9
2019-Jul-18 06:38 188 18.9
2019-Jul-18 06:33 188 18.9
2019-Jul-18 06:18 188 18.9
2019-Jul-18 06:13 188 18.9
2019-Jul-18 06:08 188 18.9
2019-Jul-18 06:03 188 18.9
2019-Jul-18 05:48 188 18.9
2019-Jul-18 05:43 188 18.3
2019-Jul-18 05:38 188 18.3
2019-Jul-18 05:33 188 18.3
2019-Jul-18 05:18 188 18.3
2019-Jul-18 05:13 188 18.3
2019-Jul-18 05:08 188 18.3
2019-Jul-18 05:03 188 18.3
2019-Jul-18 04:48 188 18.3
2019-Jul-18 04:43 188 18.3
2019-Jul-18 04:38 188 18.3
2019-Jul-18 04:33 188 18.3
2019-Jul-18 04:18 188 18.3
2019-Jul-18 04:13 188 18.3
2019-Jul-18 04:08 188 18.3
2019-Jul-18 04:03 188 18.3
2019-Jul-18 03:48 188 18.3
2019-Jul-18 03:43 188 18.3
2019-Jul-18 03:38 188 18.3
2019-Jul-18 03:33 188 18.3
2019-Jul-18 03:18 188 18.9
2019-Jul-18 03:13 188 18.9
2019-Jul-18 03:08 188 18.9
2019-Jul-18 03:03 188 18.9
2019-Jul-18 02:48 192 18.9
2019-Jul-18 02:43 192 18.9
2019-Jul-18 02:38 193 18.9
2019-Jul-18 02:33 192 18.9
2019-Jul-18 02:18 197 18.9
2019-Jul-18 02:13 197 18.9
2019-Jul-18 02:08 195 18.9
2019-Jul-18 02:03 195 18.9
2019-Jul-18 01:48 179 18.9
2019-Jul-18 01:43 171 18.9
2019-Jul-18 01:38 174 19.4
2019-Jul-18 01:33 189 19.4
2019-Jul-18 01:18 200 19.4
2019-Jul-18 01:13 200 19.4
2019-Jul-18 01:08 184 19.4
2019-Jul-18 01:03 214 19.4
2019-Jul-18 00:48 169 19.4
2019-Jul-18 00:43 173 19.4
2019-Jul-18 00:38 208 19.4
2019-Jul-18 00:33 180 0 gusting 4 19.4
2019-Jul-18 00:18 179 19.4
2019-Jul-18 00:13 195 19.4
2019-Jul-18 00:08 177 19.4
2019-Jul-18 00:03 188 19.4
2019-Jul-17 23:48 187 20.0
2019-Jul-17 23:43 184 20.0
2019-Jul-17 23:38 184 20.0
2019-Jul-17 23:33 181 20.0
2019-Jul-17 23:18 184 20.0
2019-Jul-17 23:13 213 0 gusting 4 20.0
2019-Jul-17 23:08 211 20.0
2019-Jul-17 23:03 193 20.0
2019-Jul-17 22:48 191 0 gusting 6 20.0
2019-Jul-17 22:43 204 0 gusting 5 20.0
2019-Jul-17 22:38 198 20.0
2019-Jul-17 22:33 191 20.6
2019-Jul-17 22:18 198 0 gusting 5 20.6
2019-Jul-17 22:13 192 20.6
2019-Jul-17 22:08 184 1 gusting 6 21.1
2019-Jul-17 22:03 200 0 gusting 6 21.1
2019-Jul-17 21:48 209 21.1
2019-Jul-17 21:43 195 21.1
2019-Jul-17 21:38 220 21.7
2019-Jul-17 21:33 215 1 gusting 8 21.7
2019-Jul-17 21:18 205 21.7
2019-Jul-17 21:13 220 0 gusting 8 21.7
2019-Jul-17 21:08 210 0 gusting 8 21.7
2019-Jul-17 21:03 203 1 gusting 10 21.7
2019-Jul-17 20:48 217 1 gusting 5 22.2
2019-Jul-17 20:43 239 1 gusting 6 22.2
2019-Jul-17 20:38 204 4 gusting 8 22.2
2019-Jul-17 20:33 200 0 gusting 10 22.8
2019-Jul-17 20:18 216 3 gusting 8 22.8
2019-Jul-17 20:13 199 2 gusting 8 23.3
2019-Jul-17 20:08 215 1 gusting 8 23.3
2019-Jul-17 20:03 219 0 gusting 8 23.3
2019-Jul-17 19:48 212 2 gusting 8 23.9
2019-Jul-17 19:43 214 5 gusting 10 23.9
2019-Jul-17 19:38 209 4 gusting 10 24.4
2019-Jul-17 19:33 205 4 gusting 12 24.4
2019-Jul-17 19:18 214 1 gusting 6 25.0
2019-Jul-17 19:13 219 4 gusting 8 25.6
2019-Jul-17 19:08 255 3 gusting 10 25.6
2019-Jul-17 19:03 202 4 gusting 10 25.6
2019-Jul-17 18:48 224 2 gusting 10 26.1
2019-Jul-17 18:43 231 4 gusting 7 26.1
2019-Jul-17 18:38 217 6 gusting 10 26.7
2019-Jul-17 18:33 221 4 gusting 10 26.7
2019-Jul-17 18:18 208 4 gusting 10 26.7
2019-Jul-17 18:13 201 6 gusting 11 26.7
2019-Jul-17 18:08 220 7 gusting 13 27.2
2019-Jul-17 18:03 210 4 gusting 13 27.2
2019-Jul-17 17:48 210 5 gusting 10 27.2
2019-Jul-17 17:43 214 1 gusting 10 27.2
2019-Jul-17 17:38 222 6 gusting 10 27.2
2019-Jul-17 17:33 202 5 gusting 15 27.2
2019-Jul-17 17:18 201 3 gusting 12 27.8
2019-Jul-17 17:13 187 2 gusting 11 27.2
2019-Jul-17 17:08 182 5 gusting 11 27.2
2019-Jul-17 17:03 168 6 gusting 13 27.2
2019-Jul-17 16:48 173 4 gusting 11 27.8
2019-Jul-17 16:43 189 5 gusting 8 27.8
2019-Jul-17 16:38 215 5 gusting 10 28.3
2019-Jul-17 16:33 214 0 gusting 12 27.8
2019-Jul-17 16:18 209 4 gusting 12 27.8
2019-Jul-17 16:13 191 4 gusting 10 28.3
2019-Jul-17 16:08 201 6 gusting 11 27.8
2019-Jul-17 16:03 205 5 gusting 12 27.8
2019-Jul-17 15:48 151 2 gusting 8 28.3
2019-Jul-17 15:43 207 1 gusting 6 28.3
2019-Jul-17 15:38 158 1 gusting 10 27.8
2019-Jul-17 15:33 210 5 gusting 10 27.8
2019-Jul-17 15:18 174 5 gusting 10 27.8
2019-Jul-17 15:08 170 3 gusting 8 27.8
2019-Jul-17 15:03 192 2 gusting 11 27.8
2019-Jul-17 14:48 178 2 gusting 12 27.8
2019-Jul-17 14:43 179 2 gusting 10 27.8
2019-Jul-17 14:38 196 1 gusting 10 27.8
2019-Jul-17 14:33 226 1 gusting 10 27.8
2019-Jul-17 14:18 229 27.2
2019-Jul-17 14:13 221 0 gusting 6 27.2
2019-Jul-17 14:08 186 2 gusting 6 27.2
2019-Jul-17 14:03 230 0 gusting 10 27.2
2019-Jul-17 13:48 162 26.7
2019-Jul-17 13:43 262 2 gusting 7 26.7
2019-Jul-17 13:38 184 26.7
2019-Jul-17 13:33 192 26.7
2019-Jul-17 13:18 194 25.6
2019-Jul-17 13:13 207 1 gusting 6 25.6
2019-Jul-17 13:08 239 25.6
2019-Jul-17 13:03 199 1 gusting 7 25.6
2019-Jul-17 12:48 245 24.4
2019-Jul-17 12:43 224 1 gusting 8 24.4
2019-Jul-17 12:38 223 2 gusting 6 24.4
2019-Jul-17 12:33 230 24.4
2019-Jul-17 12:18 144 0 gusting 7 24.4
2019-Jul-17 12:13 177 0 gusting 10 23.9
2019-Jul-17 12:08 209 4 gusting 7 24.4
2019-Jul-17 12:03 191 0 gusting 6 24.4
2019-Jul-17 11:48 196 1 gusting 6 23.9
2019-Jul-17 11:43 256 0 gusting 5 23.3
2019-Jul-17 11:38 229 0 gusting 6 23.3
2019-Jul-17 11:33 219 0 gusting 7 23.3
2019-Jul-17 11:18 186 0 gusting 6 22.8
2019-Jul-17 11:13 229 1 gusting 6 22.8
2019-Jul-17 11:08 210 2 gusting 6 22.8
2019-Jul-17 11:03 248 0 gusting 8 22.8
2019-Jul-17 10:48 205 2 gusting 6 22.8
2019-Jul-17 10:43 183 1 gusting 6 22.8
2019-Jul-17 10:38 176 2 gusting 6 22.8
2019-Jul-17 10:33 205 0 gusting 6 22.8
2019-Jul-17 10:18 203 2 gusting 6 22.2
2019-Jul-17 10:13 180 22.2
2019-Jul-17 10:08 216 3 gusting 6 22.2
2019-Jul-17 10:03 218 22.2
2019-Jul-17 09:48 207 1 gusting 6 21.7
2019-Jul-17 09:43 169 1 gusting 5 21.7
2019-Jul-17 09:38 197 4 gusting 7 21.7
2019-Jul-17 09:33 209 5 gusting 8 21.7
2019-Jul-17 09:18 204 0 gusting 6 21.7
2019-Jul-17 09:13 211 1 gusting 6 21.7
2019-Jul-17 09:08 238 21.1
2019-Jul-17 09:03 237 21.1
2019-Jul-17 08:48 204 1 gusting 6 21.1
2019-Jul-17 08:43 218 4 gusting 6 21.1
2019-Jul-17 08:38 184 1 gusting 10 21.1
2019-Jul-17 08:33 221 1 gusting 8 21.1
2019-Jul-17 08:18 170 21.1
2019-Jul-17 08:13 179 20.6
2019-Jul-17 08:08 200 20.6
2019-Jul-17 08:03 191 0 gusting 4 20.6
2019-Jul-17 07:48 217 0 gusting 4 20.6
2019-Jul-17 07:43 185 20.6
2019-Jul-17 07:38 158 20.6
2019-Jul-17 07:33 181 20.6
2019-Jul-17 07:18 147 1 gusting 4 20.0
2019-Jul-17 07:13 158 20.0
2019-Jul-17 07:08 162 20.0
2019-Jul-17 07:03 158 20.0
2019-Jul-17 06:48 145 19.4
2019-Jul-17 06:43 184 19.4
2019-Jul-17 06:38 184 19.4
2019-Jul-17 06:33 184 19.4
2019-Jul-17 06:18 184 19.4
2019-Jul-17 06:13 187 19.4
2019-Jul-17 06:08 195 19.4
2019-Jul-17 06:03 196 19.4
2019-Jul-17 05:48 196 18.9
2019-Jul-17 05:43 196 18.9
2019-Jul-17 05:38 196 18.9
2019-Jul-17 05:33 202 18.9
2019-Jul-17 05:18 169 18.9
2019-Jul-17 05:13 169 18.9
2019-Jul-17 05:08 178 18.9
2019-Jul-17 05:03 179 18.9
2019-Jul-17 04:48 192 18.9
2019-Jul-17 04:43 180 18.9
2019-Jul-17 04:38 172 18.9
2019-Jul-17 04:33 183 18.9
2019-Jul-17 04:18 174 18.9
2019-Jul-17 04:13 191 0 gusting 2 18.9
2019-Jul-17 04:08 178 18.9
2019-Jul-17 04:03 182 0 gusting 4 18.9
2019-Jul-17 03:48 191 18.9
2019-Jul-17 03:43 183 18.9
2019-Jul-17 03:38 222 0 gusting 2 18.9
2019-Jul-17 03:33 190 18.9
2019-Jul-17 03:18 196 18.9
2019-Jul-17 03:13 207 18.9
2019-Jul-17 03:08 207 18.9
2019-Jul-17 03:03 207 0 gusting 2 18.9
2019-Jul-17 02:48 206 0 gusting 4 19.4
2019-Jul-17 02:43 186 0 gusting 4 19.4
2019-Jul-17 02:38 219 19.4
2019-Jul-17 02:33 198 18.9
2019-Jul-17 02:18 191 18.9
2019-Jul-17 02:13 177 0 gusting 4 19.4
2019-Jul-17 02:08 195 19.4
2019-Jul-17 02:03 169 19.4
2019-Jul-17 01:48 178 19.4
2019-Jul-17 01:43 172 19.4
2019-Jul-17 01:38 179 19.4
2019-Jul-17 01:33 188 19.4
2019-Jul-17 01:18 180 19.4
2019-Jul-17 01:13 191 0 gusting 2 19.4
2019-Jul-17 01:08 181 19.4
2019-Jul-17 01:03 192 19.4
2019-Jul-17 00:48 182 19.4
2019-Jul-17 00:43 173 19.4
2019-Jul-17 00:38 173 19.4
2019-Jul-17 00:33 174 20.0
2019-Jul-17 00:18 213 20.0
2019-Jul-17 00:13 208 20.0
2019-Jul-17 00:08 186 20.0
2019-Jul-17 00:03 187 20.0
2019-Jul-16 23:48 165 20.0
2019-Jul-16 23:43 180 20.0
2019-Jul-16 23:38 189 20.6
2019-Jul-16 23:33 228 20.6
2019-Jul-16 23:18 195 0 gusting 4 20.6
2019-Jul-16 23:13 182 20.6
2019-Jul-16 23:08 189 20.6
2019-Jul-16 23:03 161 20.6
2019-Jul-16 22:48 182 21.1
2019-Jul-16 22:43 165 21.1
2019-Jul-16 22:38 187 21.1
2019-Jul-16 22:33 220 2 gusting 5 21.7
2019-Jul-16 22:18 216 21.7
2019-Jul-16 22:13 219 0 gusting 4 21.7
2019-Jul-16 22:08 221 0 gusting 4 22.2
2019-Jul-16 22:03 246 22.2
2019-Jul-16 21:48 228 0 gusting 6 22.8
2019-Jul-16 21:43 219 2 gusting 7 22.8
2019-Jul-16 21:38 251 0 gusting 8 22.8
2019-Jul-16 21:33 239 1 gusting 7 22.8
2019-Jul-16 21:18 225 3 gusting 10 23.3
2019-Jul-16 21:13 225 2 gusting 10 23.3
2019-Jul-16 21:08 222 1 gusting 7 23.3
2019-Jul-16 21:03 238 1 gusting 7 23.9
2019-Jul-16 20:48 248 1 gusting 8 24.4
2019-Jul-16 20:43 229 1 gusting 5 24.4
2019-Jul-16 20:38 240 1 gusting 10 24.4
2019-Jul-16 20:33 243 2 gusting 10 24.4
2019-Jul-16 20:18 244 2 gusting 7 25.0
2019-Jul-16 20:13 237 2 gusting 7 25.6
2019-Jul-16 20:08 233 1 gusting 4 25.6
2019-Jul-16 20:03 226 0 gusting 8 25.6
2019-Jul-16 19:48 231 0 gusting 8 26.1
2019-Jul-16 19:43 251 0 gusting 8 26.7
2019-Jul-16 19:38 238 2 gusting 7 26.7
2019-Jul-16 19:33 230 26.7
2019-Jul-16 19:18 214 0 gusting 6 27.2
2019-Jul-16 19:13 223 3 gusting 7 27.2
2019-Jul-16 19:08 200 2 gusting 6 27.8
2019-Jul-16 19:03 203 2 gusting 7 27.8
2019-Jul-16 18:48 237 0 gusting 5 28.3
2019-Jul-16 18:43 225 2 gusting 8 28.3
2019-Jul-16 18:38 214 2 gusting 7 28.3
2019-Jul-16 18:33 223 6 gusting 10 28.3
2019-Jul-16 18:18 219 3 gusting 7 28.9
2019-Jul-16 18:13 208 0 gusting 10 29.4
2019-Jul-16 18:08 230 2 gusting 6 29.4
2019-Jul-16 18:03 234 3 gusting 12 29.4
2019-Jul-16 17:48 225 2 gusting 10 30.0
2019-Jul-16 17:43 198 1 gusting 10 30.0
2019-Jul-16 17:38 209 4 gusting 10 30.6
2019-Jul-16 17:33 215 1 gusting 8 30.6
2019-Jul-16 17:18 221 4 gusting 11 30.0
2019-Jul-16 17:13 218 5 gusting 12 30.0
2019-Jul-16 17:08 237 4 gusting 15 30.6
2019-Jul-16 17:03 205 2 gusting 12 30.0